Location: Augirein
(42.9320°N, 0.9181°E)
Time: 07:25:22
(UTC+00:00)

X-37B - Pass Details

Date: 25 September 2021
Orbit: 445 x 447 km, 45.0° (Epoch: 24 October)

Event Time Altitude Azimuth Distance (km) Brightness Sun altitude
Exits shadow 03:51:31 73° 101° (E) 468 1.0 -21.6°
Drops below altitude 10° 03:54:48 10° 75° (ENE) 1,567 4.8 -21.0°
Enters shadow 04:49:04 -73° 260° (W) 12,674 8.2 -11.4°
Maximum altitude 05:29:19 59° 359° (N) 520 1.3 -4.1°
